Regional Weather Roundup
Issued by NWS

Home | Current Version | Previous Version | Text Only | Print | Product List | Glossary On
Versions: 1 2 3 4 5 6 7 8 9 10 11 12 13 14 15 16 17 18 19 20 21 22 23 24 25 26 27 28 29 30 31 32 33 34 35 36 37 38 39 40 41 42 43 44 45 46 47 48 49 50
000
ASHW40 PHFO 041543
RWRHI

WEATHER ROUNDUP FOR HAWAII
NATIONAL WEATHER SERVICE HONOLULU HI
500 AM HST SAT JUL 04 2015

THIS IS AN AUTOMATED REPORT THAT HAS NOT BEEN QUALITY CONTROLLED.

NOTE..."FAIR" INDICATES FEW OR NO CLOUDS BELOW 12,000 FEET WITH NO
SIGNIFICANT WEATHER AND/OR OBSTRUCTIONS TO VISIBILITY.

* - THESE SITES REPORT LIMITED FIELDS

HIZ001>004-041600-
KAUAI-NIIHAU-

CITY           SKY/WX    TMP DP  RH WIND       PRES   REMARKS
LIHUE APT      MOCLDY    79  72  78 E12       29.93R
PORT ALLEN*    NOT AVBL
POIPU*           N/A     77 N/A N/A NE7G13      N/A
PRINCEVILLE*     N/A     75 N/A N/A MISG        N/A
KOKOLE POINT*  NOT AVBL
MOLOAA DAIRY*  NOT AVBL
WAIMEA HTS*      N/A     73  63  68 N1          N/A
PUU OPAE*        N/A     68  63  83 E5          N/A
PUU LUA*       NOT AVBL
MAKAHA RIDGE*    N/A     70  64  83 CALM        N/A
$$

HIZ005>011-041600-
OAHU-

CITY           SKY/WX    TMP DP  RH WIND       PRES   REMARKS
HONOLULU       PTCLDY    76  69  79 N3        29.92R
KALAELOA       CLEAR     72  66  81 CALM      29.93S
KANEOHE MCB    CLOUDY    77  70  79 VRB5      29.90R
WHEELER FIELD  FAIR      70  65  85 CALM      29.93R
BELLOWS*         N/A    N/A N/A N/A E14         N/A
KAHUKU*          N/A    N/A N/A N/A E6G12       N/A
WHEELER*       NOT AVBL
WAIANAE HARBOR NOT AVBL
DILLINGHAM*      N/A     68  66  94 MISG        N/A
KAHUKU TRN*      N/A     73  66  78 E6G13       N/A
KAWAILOA*        N/A     70  64  83 E2          N/A
KII*             N/A     79  72  78 E13         N/A
MAKUA RANGE*     N/A     73  66  78 E7          N/A
OAHU FOREST NW   N/A     66  66 100 CALM        N/A
SCHOFIELD BRK*   N/A     68  64  88 MISG        N/A
SCHOFIELD S*   NOT AVBL
WAIANAE VLY*     N/A     88  82  84 MISG        N/A  HX 108
KUAOKALA*        N/A     73  68  83 E5          N/A
HONOULIUULI*   NOT AVBL
MOKUOLOE IS*     N/A    N/A N/A N/A MISG        N/A
PALEHUA*         N/A     66  61  82 NE6         N/A
WAIAWA PHB*    NOT AVBL
$$

HIZ012>013-041600-
MOLOKAI-

CITY           SKY/WX    TMP DP  RH WIND       PRES   REMARKS
MOLOKAI AIRPT  CLEAR     69  64  84 NE5       29.93R
KALAUPAPA      NOT AVBL
MAKAPULAPAI*     N/A     77  70  78 E12G18      N/A
MOLOKAI 1*       N/A     82  77  83 E1G8        N/A  HX  91
PUU ALII*        N/A     59  59 100 CALM        N/A
$$

HIZ016-041600-
KAHOOLAWE-

CITY           SKY/WX    TMP DP  RH WIND       PRES   REMARKS
KAHOOLAWE*     NOT AVBL
HAKIOAWA*        N/A     73  66  78 MISG      30.35R
HONOKANAIA*      N/A     78  69  74 NE13G25   29.92S
KANELOA*         N/A     73  68  83 E15G25    29.97F
KEALIALALO*      N/A     73  68  83 E12G22    29.92R
LUA MAKIKA*    NOT AVBL
$$

HIZ014>015-041600-
LANAI-

CITY           SKY/WX    TMP DP  RH WIND       PRES   REMARKS
LANAI CITY     FAIR      66  64  93 E7        29.98R
LANAI 1*         N/A     70  66  88 NE8         N/A
$$

HIZ017>028-041600-
MAUI-

CITY           SKY/WX    TMP DP  RH WIND       PRES   REMARKS
KAHULUI        CLEAR     72  64  76 N3        29.91S
KAPALUA-W MAUI NOT AVBL
HANA AIRPORT   CLOUDY    73  70  88 CALM      29.96R
HANA*            N/A     75 N/A N/A SE2         N/A
HALEAKALA SUMM   N/A     46  23  39 NE6G21      N/A
MAALAEA BAY*   NOT AVBL
HALEAKALA*     NOT AVBL
KAUPO GAP*       N/A     59  54  82 NW3G9       N/A
KULA 1*          N/A    N/A N/A N/A E5          N/A
$$

HIZ023>026-041600-
BIG ISLAND OF HAWAII COAST AND LOWER SLOPES-

CITY           SKY/WX    TMP DP  RH WIND       PRES   REMARKS
KAILUA KONA    CLOUDY    79  67  66 N3        29.89S
HILO           PTCLDY    71  62  73 SW6       29.93S
HONOKAA*       NOT AVBL
KAWAIHAE MWT*    N/A     79 N/A N/A NE6         N/A
KAWAIHAE*        N/A     79 N/A N/A N6G12       N/A
SOUTH POINT*     N/A     68 N/A N/A N7          N/A
UPOLU AIRPORT*   N/A    N/A N/A N/A E8G14       N/A
KAMUELA*       PTSUNNY   57  54  88 NE7       30.03S
HAKALAU*         N/A    N/A N/A N/A W5          N/A
KALOKO-HONOKO*   N/A     75  66  73 NE3       29.88S
PALI 2*          N/A     63  57  82 N7          N/A
KEALAKOMO*       N/A     84  70  61 NE7G16      N/A
KAUPULEHU*       N/A     72  63  73 S3          N/A
KAPAPALA*        N/A     61  59  92 VRB3        N/A
LOWER KAHUKU*    N/A     61  59  94 VRB3G9      N/A
PUHE CS*         N/A     79  63  57 NE3G12      N/A
PUHO CS*         N/A     73  66  79 E3          N/A
PTA KEAMUKU*     N/A     61  55  82 CALM        N/A
WAIKOLOA*        N/A     66  59  77 E8          N/A
$$

HIZ027>028-041600-
BIG ISLAND OF HAWAII INTERIOR AND SUMMMITS-

CITY           SKY/WX    TMP DP  RH WIND       PRES   REMARKS
BRADSHAW FIELD PTCLDY    50  32  49 SE5       30.24R
MK VISITOR CEN   N/A      0   0 100 MISG        N/A
MAUNA KEA*       N/A     37 -11  12 E12         N/A  WCI  30
MAUNA LOA*       N/A    N/A N/A N/A MISG        N/A
MAUNA LOA 1*   NOT AVBL
PTA KIPUKA*      N/A     52  50  93 SE3         N/A
PTA RANGE 17*    N/A     48  36  61 E3          N/A
PTA WEST*        N/A     75  73  94 SE8         N/A
NENE CABIN*      N/A    N/A N/A N/A N3          N/A
AHUMOA*          N/A    N/A N/A N/A E6          N/A
PTA PORTABLE*  NOT AVBL
PUU MALI*        N/A    N/A N/A N/A SE9G15      N/A
$$

HIC003-041600-
NORTHWEST ISLANDS-

CITY           SKY/WX    TMP DP  RH WIND       PRES   REMARKS
MIDWAY ISLAND  CLEAR     79  73  83 NW8       29.86S
MIDWAY NOS*    NOT AVBL
FRENCH FRIGATE NOT AVBL
$$

PHZ110>124-180-041600-
BUOY REPORTS

STATION/POSITION TIME  TEMP    WIND        PRES    WAVE   SWELL
                       AIR SEA DIR/SP/G            HT/PER HT/DIR
                 (UTC) (F)     (DEG/KT/KT) (MB)    (FT/S) (FT/D)
BUOY 51001       NOT AVBL
BUOY 51101       1500   79 80  170/  8/ 10 1012.3R   5/14   5/190
BUOY 51100       NOT AVBL
BUOY 51002       1500   79 81  100/ 14/ 16 1011.8R   7/14   5/190
BUOY 51003       1500   80 81  160/ 10/ 12 1012.1R   6/ 8   7
BUOY 51004       1408   78 80   60/ 10/ 12 1012.1R   6/ 7   5/ 90
BARBERS PT BUOY  NOT AVBL
WAIMEA BAY BUOY  1500      79                N/A     3/ 8
KAILUA BAY BUOY  1500      80                N/A     4/ 8   2/150
LANAI BUOY       NOT AVBL
BARBERS PT 2     1500      81                N/A     5/14   3/190
PAUWELA MAUI     1500      79                N/A     4/ 8
HILO             1500      79                N/A     4/10   2/ 70
KANEOHE BAY BUOY 1500      79                N/A     4/ 8
HANALEI KAUAI    1500      80                N/A     4/ 9   2/310
KAHULUI HARBOR   1500   77 81  340/  8/ 13 1012.6F
HONOLULU HARBOR  1500   77 81   CALM  /  1 1013.3R
KILO NALU        NOT AVBL
HILO HARBOR      1500   72 78  190/  3/  5 1013.1S
MOKUOLOE         1500   79 83  110/ 10/ 14 1013.3R
NAWILIWILI       1500   78 81   90/ 11/ 13 1012.9R
WHOTS BUOY       NOT AVBL
BUOY 51028       NOT AVBL
$$

......................KEY........................................
  SKY/WX - SKY CONDITIONS/PRESENT WEATHER
  TMP    - TEMPERATURE IN FAHRENHEIT
  DWPT   - DEWPOINT IN FAHRENHEIT
  RH     - RELATIVE HUMIDITY IN PERCENT
  WIND   - DIRECTION AND SPEED /MPH FOR ISLANDS...KTS FOR BUOYS/
  PRES   - MEAN SEA LEVEL PRESSURE IN INCHES OF HG
  VSB    - VISIBILITY IN MILES
  HX     - HEAT INDEX
  WCI    - WIND CHILL INDEX
  VRB    - VARIABLE WIND DIRECTION
  N/A    - NOT AVAILABLE


USA.gov is the U.S. government's official web portal to all federal, state and local government web resources and services.